Regional Weather Roundup
Issued by NWS

Home | Current Version | Previous Version | Text Only | Print | Product List | Glossary On
Versions: 1 2 3 4 5 6 7 8 9 10 11 12 13 14 15 16 17 18 19 20 21 22 23 24 25 26 27 28 29 30 31 32 33 34 35 36 37 38 39 40 41 42 43 44 45 46 47 48 49 50
000
ASUS45 KSLC 210110
RWRUT

UTAH REGIONAL WEATHER ROUNDUP
NATIONAL WEATHER SERVICE SALT LAKE CITY UT
700 PM MDT WED SEP 20 2017

UTZ001>011-023>025-210200-

NORTHERN UTAH

CITY           SKY/WX    TMP DP  RH WIND       PRES   REMARKS
BRIGHAM CITY   CLOUDY    67  34  28 N8        29.68F
HILL AFB       MOCLDY    65  36  33 N5        29.67F
LOGAN          CLOUDY    62  42  47 N6        29.71F
OGDEN          CLOUDY    68  36  30 NE8       29.65F
SALT LAKE CITY MOCLDY    77  37  23 SE9       29.62F
TOOELE VALLEY  MOCLDY    73  36  25 SW6       29.61F
WENDOVER       CLOUDY    69  29  22 N9        29.64F
HEBER CITY     CLOUDY    68  34  28 W3        29.73F
WEST JORDAN    MOCLDY    74  48  39 SE8       29.65F

$$

UTZ011>015-024>027-210200-

CENTRAL/NORTHEAST UTAH

CITY           SKY/WX    TMP DP  RH WIND       PRES   REMARKS
PROVO AIRPORT  MOCLDY    74  43  32 SE8       29.67F
MOAB/CANYONLAN CLEAR     81  29  15 SW15      29.74F
DELTA          CLEAR     75  32  20 S28G33    29.71S
PRICE          MOCLDY    73  35  25 S10       29.78F
ROOSEVELT      CLOUDY    70  36  28 N7        29.78F
VERNAL         PTCLDY    66  40  38 SW3       29.77F

$$

UTZ013>016-019>022-027-210200-

SOUTHERN UTAH

CITY           SKY/WX    TMP DP  RH WIND       PRES   REMARKS
BRYCE CANYON   CLEAR     65  28  24 SW18G30   29.98F
CEDAR CITY     CLEAR     71  33  24 SW17G32   29.83F
MILFORD        CLEAR     75  35  23 SW24G33   29.76S
ST GEORGE      MOCLDY    86  37  17 W15G25    29.70F
HANKSVILLE     CLEAR     81  30  16 S15G23    29.75F
BLANDING         N/A     75  25  15 SW12      29.97F

$$

REGIONAL REPORTS     COLORADO/ARIZONA

CITY           SKY/WX    TMP DP  RH WIND       PRES   REMARKS
CRAIG, CO      MOCLDY    70  31  23 SW14      29.85S
GRAND JUNCTION PTCLDY    80  32  17 S10       29.78S
RIFLE, CO      CLEAR     76  27  16 SW7       29.83S
MONTROSE, CO   CLEAR     75  27  17 SW13      29.90S
CORTEZ, CO     CLEAR     73  30  20 S10       29.94F
PAGE, AZ       CLEAR     85  26  11 SW12G20   29.77S
GRAND CANYON   CLEAR     69  28  21 SW24G35   30.02R
KINGMAN, AZ    CLEAR     81  44  27 SW21      29.82S
FLAGSTAFF, AZ  PTCLDY    64  34  32 SW22G30   30.08S

$$

REGIONAL REPORTS    NEVADA/IDAHO/WYOMING

CITY           SKY/WX    TMP DP  RH WIND       PRES   REMARKS
LAS VEGAS, NV  CLEAR     88  35  15 SW13G23   29.66F
ELY, NY        PTCLDY    71  28  20 SW26G37   29.75F
ELKO, NV       LGT RAIN  54  44  69 W13       29.75R
POCATELLO, ID  CLOUDY    56  41  57 S8        29.75R
BURLEY, ID     LGT RAIN  53  44  71 NW7G21    29.72R
FORT BRIDGER,    N/A     64  31  29 SW17G25   29.85F
EVANSTON, WY   CLOUDY    59  32  36 SW17G25   29.81F
ROCK SPRINGS,  CLOUDY    57  32  38 SW3       29.85F
KEMMERER, WY     N/A     54  30  40 W7        29.84F

$$



USA.gov is the U.S. government's official web portal to all federal, state and local government web resources and services.